When you browse on this site, cookies collect data to enhance your experience and personalize the content and advertising you see.
Visit our Privacy Policy to learn more. By continuing to use the site, you agree to this use of cookies and data.
  • In Hungary
  • List of Countries
  • For 7 days
  • Water Temperature
  • Satellite Maps
  • Weather Map
  • News
  • Weather Widgets
  • user-avatar
    Login

    Hourly Weather Marsberg

    Today, 17 June, Monday

    Time Temperature Precipitation Wind Pressure Humidity
    00:00 +12°C° 0 mm 0 mps 737 mmHg 89%
    01:00 +12°C° 0 mm 0 mps 737 mmHg 91%
    02:00 +12°C° 0 mm 0 mps 737 mmHg 91%
    03:00 +11°C° 0 mm 0 mps 737 mmHg 91%
    04:00 +11°C° 0 mm 0 mps 737 mmHg 91%
    05:00 +13°C° 0 mm 0 mps 737 mmHg 90%
    06:00 +15°C° 0 mm 1 mps 738 mmHg 88%
    07:00 +18°C° 0 mm 1 mps 738 mmHg 86%
    08:00 +19°C° 0 mm 1 mps 738 mmHg 77%
    09:00 +21°C° 0 mm 1 mps 737 mmHg 69%
    10:00 +23°C° 0 mm 2 mps 737 mmHg 60%
    11:00 +23°C° 0 mm 2 mps 737 mmHg 58%
    12:00 +24°C° 0 mm 2 mps 737 mmHg 56%
    13:00 +24°C° 0 mm 2 mps 737 mmHg 54%
    14:00 +25°C° 0 mm 2 mps 737 mmHg 54%
    15:00 +25°C° 0 mm 2 mps 736 mmHg 54%
    16:00 +25°C° 0 mm 2 mps 736 mmHg 53%
    17:00 +24°C° 0 mm 2 mps 735 mmHg 60%
    18:00 +23°C° 0 mm 2 mps 735 mmHg 68%
    19:00 +21°C° 0 mm 2 mps 735 mmHg 75%
    20:00 +20°C° 0 mm 2 mps 735 mmHg 80%
    21:00 +18°C° 0 mm 2 mps 735 mmHg 85%
    22:00 +17°C° 0 mm 2 mps 735 mmHg 91%
    23:00 +16°C° 0 mm 2 mps 735 mmHg 91%

    Tomorrow, 18 June, Tuesday

    Time Temperature Precipitation Wind Pressure Humidity
    00:00 +16°C° 0 mm 1 mps 735 mmHg 92%
    01:00 +15°C° 0 mm 1 mps 735 mmHg 92%
    02:00 +15°C° 0 mm 1 mps 734 mmHg 92%
    03:00 +15°C° 0 mm 1 mps 734 mmHg 92%
    04:00 +15°C° 0 mm 1 mps 734 mmHg 91%
    05:00 +16°C° 0 mm 1 mps 734 mmHg 88%
    06:00 +19°C° 0 mm 1 mps 734 mmHg 84%
    07:00 +20°C° 0 mm 1 mps 734 mmHg 81%
    08:00 +21°C° 0.1 mm 2 mps 734 mmHg 75%
    09:00 +23°C° 0.1 mm 2 mps 734 mmHg 70%
    10:00 +25°C° 0.1 mm 3 mps 734 mmHg 65%
    11:00 +26°C° 0.1 mm 3 mps 733 mmHg 61%
    12:00 +26°C° 0.1 mm 3 mps 733 mmHg 57%
    13:00 +27°C° 0.1 mm 3 mps 733 mmHg 53%
    14:00 +27°C° 0.1 mm 3 mps 732 mmHg 55%
    15:00 +27°C° 0.1 mm 3 mps 732 mmHg 57%
    16:00 +27°C° 0.1 mm 2 mps 732 mmHg 59%
    17:00 +25°C° 0.2 mm 2 mps 731 mmHg 65%
    18:00 +24°C° 0.2 mm 2 mps 731 mmHg 72%
    19:00 +23°C° 0.2 mm 1 mps 731 mmHg 79%
    20:00 +22°C° 0.1 mm 1 mps 731 mmHg 81%
    21:00 +21°C° 0.1 mm 1 mps 731 mmHg 82%
    22:00 +19°C° 0.1 mm 1 mps 731 mmHg 84%
    23:00 +19°C° 0 mm 1 mps 730 mmHg 86%

    Day after tomorrow, 19 June, Wednesday

    Time Temperature Precipitation Wind Pressure Humidity
    00:00 +18°C° 0 mm 1 mps 730 mmHg 88%
    01:00 +18°C° 0 mm 1 mps 729 mmHg 90%
    02:00 +18°C° 0 mm 1 mps 729 mmHg 90%
    03:00 +16°C° 0 mm 1 mps 729 mmHg 90%
    04:00 +16°C° 0 mm 1 mps 729 mmHg 91%
    05:00 +18°C° 0 mm 1 mps 729 mmHg 88%
    06:00 +20°C° 0 mm 1 mps 729 mmHg 86%
    07:00 +21°C° 0 mm 1 mps 729 mmHg 84%
    08:00 +23°C° 0 mm 2 mps 729 mmHg 75%
    09:00 +25°C° 0 mm 3 mps 729 mmHg 66%
    10:00 +27°C° 0 mm 3 mps 729 mmHg 58%
    11:00 +27°C° 0.1 mm 4 mps 729 mmHg 56%
    12:00 +28°C° 0.1 mm 4 mps 729 mmHg 54%
    13:00 +29°C° 0.1 mm 4 mps 729 mmHg 52%
    14:00 +28°C° 0.1 mm 4 mps 728 mmHg 55%
    15:00 +28°C° 0.1 mm 4 mps 728 mmHg 58%
    16:00 +27°C° 0.1 mm 4 mps 728 mmHg 61%
    17:00 +26°C° 0.1 mm 4 mps 728 mmHg 65%
    18:00 +23°C° 0.1 mm 4 mps 728 mmHg 70%
    19:00 +22°C° 0.1 mm 4 mps 728 mmHg 74%
    20:00 +20°C° 0 mm 3 mps 729 mmHg 80%
    21:00 +18°C° 0 mm 3 mps 729 mmHg 86%
    22:00 +17°C° 0 mm 2 mps 730 mmHg 92%
    23:00 +16°C° 0 mm 1 mps 730 mmHg 93%

    20 June, Thursday

    Time Temperature Precipitation Wind Pressure Humidity
    00:00 +15°C° 0 mm 1 mps 730 mmHg 94%
    01:00 +14°C° 0 mm 1 mps 730 mmHg 95%
    02:00 +14°C° 0 mm 1 mps 730 mmHg 95%
    03:00 +14°C° 0 mm 1 mps 730 mmHg 95%
    04:00 +14°C° 0 mm 1 mps 730 mmHg 95%
    05:00 +15°C° 0 mm 1 mps 730 mmHg 91%
    06:00 +16°C° 0 mm 1 mps 730 mmHg 87%
    07:00 +19°C° 0 mm 1 mps 731 mmHg 83%
    08:00 +20°C° 0.2 mm 1 mps 731 mmHg 80%
    09:00 +21°C° 0.2 mm 1 mps 731 mmHg 76%
    10:00 +22°C° 0.2 mm 1 mps 731 mmHg 73%
    11:00 +22°C° 1.2 mm 1 mps 731 mmHg 77%
    12:00 +21°C° 1.2 mm 2 mps 731 mmHg 80%
    13:00 +21°C° 1.2 mm 2 mps 730 mmHg 84%
    14:00 +21°C° 1.3 mm 2 mps 730 mmHg 84%
    15:00 +21°C° 1.3 mm 2 mps 730 mmHg 85%
    16:00 +21°C° 1.3 mm 2 mps 730 mmHg 85%
    17:00 +20°C° 1.2 mm 1 mps 730 mmHg 88%
    18:00 +19°C° 1.2 mm 1 mps 730 mmHg 91%
    19:00 +16°C° 1.2 mm 0 mps 730 mmHg 94%
    20:00 +15°C° 0 mm 0 mps 731 mmHg 95%
    21:00 +15°C° 0 mm 1 mps 731 mmHg 95%
    22:00 +15°C° 0 mm 1 mps 731 mmHg 95%
    23:00 +14°C° 0 mm 1 mps 731 mmHg 95%

    21 June, Friday

    Time Temperature Precipitation Wind Pressure Humidity
    00:00 +14°C° 0 mm 1 mps 731 mmHg 96%
    01:00 +13°C° 0 mm 1 mps 731 mmHg 96%
    02:00 +13°C° 0 mm 1 mps 732 mmHg 96%
    03:00 +13°C° 0 mm 1 mps 732 mmHg 96%
    04:00 +12°C° 0 mm 1 mps 732 mmHg 96%
    05:00 +12°C° 0 mm 0 mps 732 mmHg 96%
    06:00 +13°C° 0 mm 0 mps 733 mmHg 95%
    07:00 +14°C° 0 mm 0 mps 733 mmHg 95%
    08:00 +16°C° 0.3 mm 1 mps 733 mmHg 92%
    09:00 +17°C° 0.3 mm 2 mps 733 mmHg 89%
    10:00 +18°C° 0.3 mm 2 mps 733 mmHg 86%
    11:00 +19°C° 0.3 mm 2 mps 733 mmHg 79%
    12:00 +19°C° 0.3 mm 3 mps 733 mmHg 73%
    13:00 +20°C° 0.3 mm 3 mps 733 mmHg 66%
    14:00 +20°C° 0 mm 3 mps 733 mmHg 63%
    15:00 +20°C° 0 mm 3 mps 733 mmHg 60%
    16:00 +21°C° 0 mm 3 mps 733 mmHg 57%
    17:00 +20°C° 0 mm 3 mps 733 mmHg 63%
    18:00 +19°C° 0 mm 3 mps 734 mmHg 68%
    19:00 +18°C° 0 mm 3 mps 734 mmHg 74%
    20:00 +16°C° 0 mm 2 mps 734 mmHg 81%
    21:00 +14°C° 0 mm 2 mps 735 mmHg 88%
    22:00 +12°C° 0 mm 1 mps 735 mmHg 95%
    23:00 +12°C° 0 mm 1 mps 735 mmHg 96%

    22 June, Saturday

    Time Temperature Precipitation Wind Pressure Humidity
    00:00 +11°C° 0 mm 1 mps 735 mmHg 96%
    01:00 +11°C° 0 mm 1 mps 735 mmHg 97%
    02:00 +11°C° 0 mm 1 mps 735 mmHg 97%
    03:00 +10°C° 0 mm 1 mps 736 mmHg 97%
    04:00 +10°C° 0 mm 1 mps 736 mmHg 96%
    05:00 +11°C° 0 mm 1 mps 736 mmHg 92%
    06:00 +12°C° 0 mm 2 mps 736 mmHg 88%
    07:00 +13°C° 0 mm 2 mps 736 mmHg 83%
    08:00 +13°C° 0 mm 3 mps 736 mmHg 77%
    09:00 +16°C° 0 mm 3 mps 736 mmHg 70%
    10:00 +17°C° 0 mm 4 mps 736 mmHg 63%
    11:00 +18°C° 0 mm 4 mps 736 mmHg 61%
    12:00 +19°C° 0 mm 4 mps 736 mmHg 60%
    13:00 +19°C° 0 mm 4 mps 736 mmHg 59%
    14:00 +19°C° 0 mm 4 mps 736 mmHg 60%
    15:00 +19°C° 0 mm 4 mps 736 mmHg 61%
    16:00 +19°C° 0 mm 4 mps 735 mmHg 62%
    17:00 +18°C° 0 mm 4 mps 735 mmHg 68%
    18:00 +17°C° 0 mm 3 mps 735 mmHg 74%
    19:00 +17°C° 0 mm 2 mps 735 mmHg 80%
    20:00 +16°C° 0 mm 2 mps 736 mmHg 82%
    21:00 +15°C° 0 mm 2 mps 736 mmHg 84%
    22:00 +14°C° 0 mm 1 mps 736 mmHg 87%
    23:00 +14°C° 0.1 mm 2 mps 736 mmHg 87%
    Show more